Regional Weather Roundup
Issued by NWS

Home | Current Version | Previous Version | Graphics & Text | Print | Product List | Glossary Off
Versions: 1 2 3 4 5 6 7 8 9 10 11 12 13 14 15 16 17 18 19 20 21 22 23 24 25 26 27 28 29 30 31 32 33 34 35 36 37 38 39 40 41 42 43 44 45 46 47 48 49 50

000
ASUS43 KDTX 302201
RWRMI
MICHIGAN HOURLY REGIONAL WEATHER ROUNDUP
NATIONAL WEATHER SERVICE DETROIT/PONTIAC MI
600 PM EDT TUE AUG 30 2016

NOTE: "FAIR" INDICATES FEW OR NO CLOUDS BELOW 12,000 FEET WITH NO
SIGNIFICANT WEATHER AND/OR OBSTRUCTION TO VISIBILITY.

MIZ047>049-052>055-059>063-066>070-074>076-081>083-302300-
SOUTHEAST LOWER MICHIGAN

CITY           SKY/WX    TMP DP  RH WIND       PRES   REMARKS
ADRIAN         CLOUDY    79  71  76 CALM      30.07F
ALMA           CLOUDY    74  71  89 W6        30.05F
ANN ARBOR      PTSUNNY   79  68  69 S6        30.06F
BAD AXE        PTSUNNY   80  70  71 SW6       30.04S
CARO           MOSUNNY   80  72  76 SW6       30.03F
DETROIT CITY   CLOUDY    80  58  46 S5        30.06F
DETROIT        CLOUDY    80  64  58 S5        30.07F
FLINT          CLOUDY    79  72  79 S6        30.05F
GROSSE ILE     CLOUDY    77  66  68 S5        30.05F
HILLSDALE      CLOUDY    77  69  77 S6        30.07F
HOWELL         CLOUDY    80  69  70 S6        30.06S

CITY           SKY/WX    TMP DP  RH WIND       PRES   REMARKS
JACKSON        CLOUDY    80  69  69 W7        30.06F
LAMBERTVILLE   CLOUDY    82  67  61 CALM      30.07F
LANSING        TSTM      76  71  85 W10       30.07S
LAPEER         FAIR      77  68  73 S5        30.06F
MASON          CLOUDY    80  69  70 SW6       30.06F
MONROE         CLOUDY    83  66  56 CALM      30.05F
MT. CLEMENS    PTSUNNY   79  62  56 S9        30.04F
PONTIAC        CLOUDY    80  67  64 S6        30.05F
PORT HOPE        N/A     82  69  64 VRB5      30.01F
PORT HURON     CLOUDY    75  66  73 CALM      30.06F
TRI CITIES     PTSUNNY   79  71  76 W10       30.04F
MIDLAND        FAIR      80  68  67 SW7       30.02S
TROY           PTSUNNY   83  59  44 SW6       30.07F
SAGINAW HB     PTSUNNY   79  70  73 SW7       30.02F
$$
MIZ043>046-050>051-056>058-064>065-071>073-077>080-302300-
SOUTHWEST LOWER MICHIGAN

CITY           SKY/WX    TMP DP  RH WIND       PRES   REMARKS
BATTLE CREEK   MOSUNNY   79  70  74 W3        30.07F
BENTON HARBOR  CLOUDY    79  70  74 W7        30.05F
BIG RAPIDS     CLOUDY    82  70  66 W6        30.04F
COLDWATER      PTSUNNY   81  70  70 CALM      30.06F
FREMONT        PTSUNNY   77  71  82 SW8       30.05S
HOLLAND        CLOUDY    76  68  76 W5        30.06F
GRAND RAPIDS   CLOUDY    77  68  73 CALM      30.06S THUNDER
IONIA          FAIR      76  67  73 S8        30.05F
KALAMAZOO      MOSUNNY   80  69  69 SW3       30.06F
LUDINGTON      PTSUNNY   76  72  87 W9        30.04S
MARSHALL       PTSUNNY   82  71  71 W3        30.06F
MOUNT PLEASANT PTSUNNY   81  70  68 SW7       30.02F
MUSKEGON       CLOUDY    77  72  84 W6        30.06S
SOUTH HAVEN    MOSUNNY   80  73  79 NW5       30.05F
$$
MIZ016>042-302300-
NORTHERN LOWER MICHIGAN

CITY           SKY/WX    TMP DP  RH WIND       PRES   REMARKS
ALPENA         CLOUDY    73  69  87 E7        30.01F
BEAVER ISLAND  CLOUDY    74  69  81 W3        30.03S
BELLAIRE       PTSUNNY   80  67  65 NW6       30.02R
CADILLAC       PTSUNNY   81  68  64 SW10      30.05S
CHARLEVOIX     MOSUNNY   78  64  63 W9        30.05S
FRANKFORT      SUNNY     76  70  82 SW7       30.04S
GAYLORD        CLOUDY    82  64  54 W6        30.03F
GRAYLING       MOSUNNY   84  69  61 W7        30.03F
HARBOR SPRINGS MOSUNNY   75  70  83 SW6       30.02S
HOUGHTON LAKE  CLOUDY    76  67  73 S8        30.04S THUNDER
MANISTEE       PTSUNNY   79  71  76 W7        30.03S
OSCODA         CLOUDY    76  66  71 E9        29.99F
PELLSTON       MOSUNNY   78  66  66 NW12      30.02S
ROGERS CITY    MOSUNNY   77  68  74 N9        30.01S
TRAVERSE CITY  PTSUNNY   84  68  58 W9        30.00S
$$
MIZ007>008-015-302300-
EASTERN UPPER MICHIGAN

CITY           SKY/WX    TMP DP  RH WIND       PRES   REMARKS
KINROSS        CLOUDY    70  64  81 N21       30.02S
MACKINAC ISLAN MOSUNNY   74  68  82 SW8       30.01S
NEWBERRY       MOSUNNY   72  64  75 N9        30.04R
S. S. MARIE    CLOUDY    71  63  75 NW10G23   30.02R
MUNISING         N/A     68  62  81 NE14      30.07R
$$
MIZ004>006-011>014-085-302300-
CENTRAL UPPER MICHIGAN

CITY           SKY/WX    TMP DP  RH WIND       PRES   REMARKS
MANISTIQUE     CLOUDY    74  64  70 NW9       30.03R
ESCANABA       CLOUDY    79  66  64 NW9       30.02S
MENOMINEE      LGT RAIN N/A N/A N/A MISG        N/A
SAWYER-GWINN   MOSUNNY   68  61  77 NE17      30.08R
$$
MIZ001>003-009>011-084-302300-
WESTERN UPPER MICHIGAN

CITY           SKY/WX    TMP DP  RH WIND       PRES   REMARKS
IRON MOUNTAIN  MOSUNNY   79  58  48 NW10      30.06S
HOUGHTON       SUNNY     70  49  47 NW15      30.10S
COPPER HARBOR    N/A     71  59  65 N14       30.08S
IRONWOOD       SUNNY     69  50  50 NW9       30.15S
$$

ABBREVIATIONS USED IN REMARKS
   TC - TEMPERATURE IN CELSIUS
  WCI - WIND CHILL INDEX
   HX - HEAT INDEX
  VSB - VISIBILITY





USA.gov is the U.S. government's official web portal to all federal, state and local government web resources and services.